Home   Weather   Tyler   Past weeks

Flag for USA Past Weather in Tyler, Texas, USA — Yesterday and Last 2 Weeks

Now
78 °F

Clear.


Feels Like: 81 °F
Forecast: 75 / 92 °F
Wind: 8 mph from South

Location: Tyler Pounds Field

Current Time: Jul 25, 2017 at 3:51:02 am

Latest Report: Jul 25, 2017 at 2:53 am


Visibility: 10 mi

Pressure: 30.00 "Hg

Humidity: 96%

Dew Point: 77 °F

Location of TylerLocation

Past Weather in Tyler — Graph

°F

Tyler Temperature Yesterday

Maximum temperature yesterday: 86 °F (at 6:53 pm)
Minimum temperature yesterday: 74 °F (at 3:53 am)
Average temperature yesterday: 80 °F

High & Low Weather Summary for the Past Weeks

 TemperatureHumidityPressure
High98 °F (Jul 14, 4:53 pm)100% (Jul 10, 1:53 am)30.13 "Hg (Jul 10, 1:53 am)
Low70 °F (Jul 10, 4:53 am)37% (Jul 21, 3:53 pm)29.81 "Hg (Jul 23, 6:53 pm)
Average84 °F74%29.99 "Hg
* Reported Jul 10 1:53 am — Jul 25 1:53 am, Tyler. Weather by CustomWeather, © 2017

Note: Actual official high and low records may vary slightly from our data, if they occured in-between our weather recording intervals... More about our weather records

Advertising

Tyler Weather History for the Previous 24 Hours

Scroll right to see more
 ConditionsComfort  
Time TempWeatherWind HumidityBarometerVisibility
1:53 am
Tue, Jul 25
78 °FClear.8 mph96%30.00 "Hg10 mi
12:53 am79 °FClear.6 mph90%30.00 "Hg10 mi
11:53 pm
Mon, Jul 24
78 °FClear.6 mph87%30.00 "Hg10 mi
10:53 pm79 °FClear.5 mph84%29.98 "Hg10 mi
9:53 pm78 °FClear.6 mph87%29.97 "Hg10 mi
8:53 pm80 °FClear.5 mph85%29.96 "Hg10 mi
7:53 pm84 °FPassing clouds.8 mph77%29.95 "Hg10 mi
6:53 pm86 °FScattered clouds.7 mph72%29.94 "Hg10 mi
5:53 pm85 °FScattered clouds.6 mph75%29.94 "Hg10 mi
4:53 pm85 °FScattered clouds.7 mph72%29.94 "Hg10 mi
3:53 pm85 °FPassing clouds.9 mph75%29.95 "Hg10 mi
2:53 pm85 °FSunny.10 mph72%29.97 "Hg10 mi
1:53 pm85 °FSunny.10 mph70%29.98 "Hg10 mi
12:53 pm84 °FPassing clouds.10 mph72%29.98 "Hg10 mi
11:53 am81 °FBroken clouds.8 mph77%29.99 "Hg10 mi
10:53 am78 °FOvercast.10 mph84%30.01 "Hg10 mi
10:03 am79 °FCloudy.17 mph82%30.01 "Hg10 mi
9:53 am78 °FMostly cloudy.15 mph84%29.98 "Hg10 mi
9:38 am78 °FPartly sunny.14 mph90%30.00 "Hg10 mi
8:53 am78 °FSunny.7 mph84%29.96 "Hg10 mi
7:53 am74 °FScattered clouds.7 mph94%29.94 "Hg10 mi
6:53 am74 °FPartly sunny.3 mph91%29.94 "Hg10 mi
5:53 am76 °FOvercast.3 mph85%29.92 "Hg10 mi
4:53 am75 °FOvercast.No wind85%29.91 "Hg10 mi
3:53 am74 °FClear.3 mph85%29.90 "Hg10 mi
Weather by CustomWeather, © 2017

See weather overviewHow to use our weather pages